Location: Callanans Corners
(42.5326°N, 73.8846°W)
Time: 17:43:33
(UTC+00:00)

Cosmos 1437 Rocket - Pass Details

Date: 06 October 2022
Orbit: 498 x 557 km, 81.2° (Epoch: 05 December)

Event Time Altitude Azimuth Distance (km) Brightness Sun altitude
Rises 23:26:16 0° 184° (S) 2,584 6.3 -11.5°
Maximum altitude 23:32:05 72° 99° (E) 527 2.5 -12.6°
Drops below altitude 10° 23:35:49 10° 14° (NNE) 1,709 5.2 -13.3°
Sets 23:37:57 0° 12° (NNE) 2,599 6.2 -13.7°
